Regional Weather Roundup
Issued by NWS Albany, NY

Home | Current Version | Previous Version | Graphics & Text | Print | Product List | Glossary On
Versions: 1 2 3 4 5 6 7 8 9 10 11 12 13 14 15 16 17 18 19 20 21 22 23 24 25 26 27 28 29 30 31 32 33 34 35 36 37 38 39 40 41 42 43 44 45 46 47 48 49 50
000
ASUS41 KALY 311910
RWRALY

NEW YORK STATE HOURLY WEATHER ROUNDUP
NATIONAL WEATHER SERVICE ALBANY NY
300 PM EDT SUN AUG 31 2014

NOTE: "FAIR" INDICATES FEW OR NO CLOUDS BELOW 12,000 FEET WITH NO
SIGNIFICANT WEATHER AND/OR NO OBSTRUCTIONS TO VISIBILITY.

NYZ032-033-038>043-046>054-057>066-NYZ062>081-312000-
EAST


CITY           SKY/WX    TMP DP  RH WIND       PRES   REMARKS
ALBANY         CLOUDY    75  71  87 S6        29.98F
GLENS FALLS    CLOUDY    74  69  85 S12       29.97F
POUGHKEEPSIE   CLOUDY    82  71  69 S3        29.97F
NEWBURGH       PTSUNNY   82  72  69 SW7       30.01F
MONTGOMERY     PTSUNNY   85  70  60 SW8       29.98F
WHITE PLAINS   PTSUNNY   84  72  67 CALM      29.99F
ISLIP          PTSUNNY   82  73  74 S10       30.00F
NEW YORK CITY  PTSUNNY   89  71  55 S13       29.97F HX  95
CENTRAL PARK   PTSUNNY   89  70  53 MISG      30.00F HX  94
$$

NYZ005>009-017-018-044>046-055-056-312000-
CENTRAL


CITY           SKY/WX    TMP DP  RH WIND       PRES   REMARKS
FULTON         CLOUDY    77  69  76 SW9       29.94F
SYRACUSE       CLOUDY    79  70  74 SW8       29.94F
ROME           LGT RAIN  75  73  93 S5        29.97F
ELMIRA         CLOUDY    77  72  84 SW5       29.99S
BINGHAMTON     LGT RAIN  70  68  93 SW10      30.03F FOG
MONTICELLO     CLOUDY    75  70  83 CALM      30.04F
$$

NYZ026>034-041>043-312000-
NORTH


CITY           SKY/WX    TMP DP  RH WIND       PRES   REMARKS
WATERTOWN      CLOUDY    75  68  78 SW9       29.91F
FORT DRUM      NOT AVBL
MASSENA        CLOUDY    72  70  93 SW10      29.89F
SARANAC LAKE   CLOUDY    72  66  81 MISG      29.95F
PLATTSBURGH    LGT RAIN  73  69  87 S5        29.90F
$$

NYZ001>004-010>016-019>021-312000-
WEST


CITY           SKY/WX    TMP DP  RH WIND       PRES   REMARKS
NIAGARA FALLS  CLOUDY    76  69  79 SW14      29.94S
BUFFALO        CLOUDY    73  68  84 SW17G26   29.96S
DUNKIRK        CLOUDY    73  70  90 SW13      29.98F
JAMESTOWN      CLOUDY    66  64  94 W6        30.04F
WELLSVILLE     CLOUDY    71  66  84 SW9       30.07S
ROCHESTER      CLOUDY    78  69  73 SW13G23   29.95S
PENN YAN       LGT RAIN  74  70  87 SW6       29.99S
$$

             KEY
       WCI = WIND CHILL INDEX
       VSB = VISIBILITY
       HX  = HEAT INDEX
$$


USA.gov is the U.S. government's official web portal to all federal, state and local government web resources and services.